Location: ??????????
(48.4699°N, 37.9573°E)
Time: 12:19:39
(UTC+00:00)

YAOGAN 1 - Pass Details

Date: 20 January 2021
Orbit: 618 x 620 km, 97.9° (Epoch: 27 February)

Event Time Altitude Azimuth Distance (km) Brightness Sun altitude
Rises 16:51:58 0° 192° (SSW) 2,885 6.1 -26.7°
Reaches altitude 10° 16:54:22 10° 203° (SSW) 1,985 5.4 -27.1°
Maximum altitude 16:58:09 29° 265° (W) 1,135 4.5 -27.8°
Drops below altitude 10° 17:01:59 10° 326° (NW) 1,999 5.6 -28.4°
Sets 17:04:25 0° 338° (NNW) 2,910 6.3 -28.8°
